Flag Weather past 2 weeks in Medina, Saudi Arabia

Now
75 °F

Rain. Scattered clouds.


Feels Like: 78 °F
Forecast: 71 / 84 °F
Wind: 6 mph from North

Location: Madinah

Current Time: Nov 22, 2014 at 5:33:37 PM

Latest Report: Nov 22, 2014 at 5:00 PM


Visibility: 4 mi

Pressure: 30.01 "Hg

Humidity: 54%

Dew point: 57 °F

Location of MedinaLocation

Historic Weather in Medina — Graph

°F

Medina temperature yesterday

Maximum temperature yesterday: 88 °F (at 3:00 PM)
Minimum temperature yesterday: 70 °F (at 7:00 AM)
Average temperature yesterday: 78 °F

Past Weeks' High & Low Weather Summary

 TemperatureHumidityPressure
High90 °F (Nov 14, 3:00 PM)73% (Nov 16, 3:00 AM)30.27 "Hg (Nov 16, 3:00 AM)
Low61 °F (Nov 12, 7:00 AM)5% (Nov 14, 3:00 PM)29.92 "Hg (Nov 13, 3:00 PM)
Average76 °F26%30.08 "Hg
* Reported Nov 7 4:00 PM — Nov 22 4:00 PM, Medina, Weather by CustomWeather, © 2014

Note: Actual official high and low records may vary slightly from our data, if they occured in-between our weather recording intervals... More about our weather records

Advertising

Medina weather history for previous 24 hours

 ConditionsComfort  
Time TempWeatherWind HumidityBarometerVisibility
4:00 PM
Nov 22
81 °FRain. Scattered clouds.17 mph39%29.98 "Hg4 mi
3:00 PM84 °FThunderstorms. Scattered clouds.13 mph35%29.98 "Hg5 mi
2:00 PM82 °FScattered clouds.5 mph35%29.98 "HgN/A
1:00 PM82 °FScattered clouds.6 mph37%30.01 "HgN/A
12:00 PM81 °FScattered clouds.3 mph39%30.07 "HgN/A
11:00 AM79 °FPassing clouds.No wind42%30.09 "HgN/A
10:00 AM77 °FPassing clouds.No wind47%30.09 "HgN/A
9:00 AM73 °FPassing clouds.5 mph57%30.12 "HgN/A
8:00 AM72 °FScattered clouds.No wind65%30.09 "HgN/A
7:00 AM70 °FScattered clouds.No wind64%30.09 "HgN/A
6:00 AM72 °FClear.7 mph53%30.04 "Hg10 mi
5:00 AM70 °FClear.No wind64%30.04 "Hg10 mi
4:00 AM72 °FClear.No wind61%30.04 "Hg10 mi
3:00 AM72 °FClear.No wind61%30.07 "Hg10 mi
2:00 AM73 °FClear.6 mph57%30.04 "Hg10 mi
1:00 AM73 °FClear.No wind57%30.04 "Hg10 mi
12:00 AM75 °FClear.6 mph54%30.07 "Hg10 mi
11:00 PM
Nov 21
77 °FClear.8 mph54%30.07 "Hg10 mi
10:00 PM79 °FClear.7 mph51%30.07 "Hg10 mi
9:00 PM81 °FPassing clouds.12 mph45%30.07 "HgN/A
8:00 PM81 °FPassing clouds.14 mph45%30.07 "HgN/A
7:00 PM82 °FClear.10 mph40%30.04 "Hg10 mi
6:00 PM82 °FPassing clouds.10 mph35%30.01 "HgN/A
5:00 PM84 °FScattered clouds.16 mph33%29.98 "HgN/A
Weather by CustomWeather, © 2014

See weather overviewHow to use our weather pages